Location: LDNL
(36.4545°S, 141.6685°E)
Time: 23:01:01
(UTC+11:00)

Vanguard 2 - All Passes

Search period start: 30 January 2023 00:00
Search period end: 09 February 2023 00:00
Orbit: 554 x 2930 km, 32.9° (Epoch: 30 January)

Date Brightness Start Highest point End Pass type
(mag) Time Alt. Az. Time Alt. Az. Time Alt. Az.
30 Jan - 11:54:00 10° NNW 11:57:24 19° NNE 12:00:20 10° ENE daylight
30 Jan - 14:01:13 10° WNW 14:05:07 46° N 14:09:12 10° E daylight
30 Jan - 16:08:55 10° W 16:12:57 49° N 16:18:22 10° ENE daylight
30 Jan - 18:16:49 10° WNW 18:21:15 26° NNW 18:27:30 10° NE daylight
31 Jan - 12:10:08 10° NW 12:14:13 26° NNE 12:17:38 10° ENE daylight
31 Jan - 14:18:01 10° WNW 14:21:58 52° N 14:26:08 10° E daylight
31 Jan - 16:25:50 10° W 16:29:49 41° N 16:35:10 10° ENE daylight
31 Jan - 18:34:17 10° WNW 18:38:12 19° NNW 18:43:21 10° NNE daylight
01 Feb - 10:19:58 10° N 10:22:54 14° NNE 10:25:23 10° NE daylight
01 Feb - 12:26:36 10° NW 12:31:02 35° NNE 12:34:44 10° E daylight
01 Feb - 14:34:52 10° WNW 14:38:48 53° N 14:43:03 10° ENE daylight
01 Feb - 16:42:49 10° W 16:46:41 32° NNW 16:51:46 10° NE daylight
01 Feb - 18:52:27 10° NW 18:55:09 13° NNW 18:58:20 10° N daylight
02 Feb - 10:35:18 10° NNW 10:39:48 20° NNE 10:43:18 10° ENE daylight
02 Feb - 12:43:18 10° WNW 12:47:52 43° N 12:51:42 10° E daylight
02 Feb - 14:51:45 10° W 14:55:39 49° N 14:59:53 10° ENE daylight
02 Feb - 16:59:57 10° WNW 17:03:32 24° NNW 17:08:07 10° NE daylight
03 Feb - 10:51:20 10° NW 10:56:42 27° NNE 11:00:39 10° ENE daylight
03 Feb - 13:00:06 10° WNW 13:04:43 51° N 13:08:35 10° E daylight
03 Feb - 15:08:41 10° W 15:12:28 42° N 15:16:40 10° ENE daylight
03 Feb - 17:17:24 10° WNW 17:20:24 17° NNW 17:24:02 10° NNE daylight
04 Feb - 09:00:18 10° N 09:04:55 16° NNE 09:08:35 10° ENE daylight
04 Feb - 11:07:44 10° NW 11:13:34 36° NNE 11:17:44 10° E daylight
04 Feb - 13:16:58 10° WNW 13:21:33 54° N 13:25:27 10° ENE daylight
04 Feb - 15:25:40 10° W 15:29:17 33° NNW 15:33:18 10° NE daylight
04 Feb - 17:35:45 10° NW 17:37:16 11° NNW 17:38:55 10° N daylight
05 Feb - 09:15:35 10° NNW 09:21:53 22° NNE 09:26:26 10° ENE daylight
05 Feb - 11:24:22 10° WNW 11:30:26 44° N 11:34:41 10° E daylight
05 Feb - 13:33:53 10° W 13:38:23 53° N 13:42:16 10° ENE daylight
05 Feb - 15:42:45 10° WNW 15:46:04 24° NNW 15:49:43 10° NE daylight
06 Feb - 07:26:10 10° N 07:29:26 12° NNE 07:32:19 10° NE daylight
06 Feb - 09:31:30 10° NW 09:38:49 30° NNE 09:43:46 10° ENE daylight
06 Feb - 11:41:10 10° WNW 11:47:17 52° N 11:51:33 10° E daylight
06 Feb - 13:50:50 10° W 13:55:11 47° N 13:59:02 10° ENE daylight
06 Feb - 16:00:07 10° WNW 16:02:49 17° NNW 16:05:45 10° NNE daylight
07 Feb - 07:39:52 10° NNW 07:46:28 18° NNE 07:51:30 10° ENE daylight
07 Feb - 09:47:48 10° NW 09:55:44 38° NNE 10:00:52 10° E daylight
07 Feb - 11:58:04 10° WNW 12:04:08 58° N 12:08:23 10° E daylight
07 Feb - 14:07:48 10° W 14:11:58 38° NNW 14:15:41 10° NE daylight
07 Feb - 16:18:21 10° NW 16:19:34 11° NNW 16:20:49 10° N daylight
08 Feb - 07:55:00 10° NNW 08:03:26 24° NNE 08:09:22 10° ENE daylight
08 Feb - 10:04:23 10° WNW 10:12:37 47° NNE 10:17:50 10° E daylight
08 Feb - 12:15:01 10° W 12:20:58 59° N 12:25:10 10° ENE daylight
08 Feb - 14:24:52 10° W 14:28:41 29° NNW 14:32:11 10° NE daylight
